ON3FV Weather Reports


Display with metric or nautical units.
time (UTC)temp
F
wind
direction
speed
MPH
gust
MPH
rain 1hr
in
rain 24hr
in
rain mn
in
humidity
%
barometer
mb
20260509144647 70 0.0 0.0 0.00 0.00 0.00 52 1014.4
20260509144125 70 0.0 0.0 0.00 0.00 0.00 52 1014.4
20260509143645 70 0.0 0.0 0.00 0.00 0.00 52 1014.5
20260509143144 70 0.0 0.0 0.00 0.00 0.00 52 1014.5
20260509142622 70 0.0 0.0 0.00 0.00 0.00 52 1014.6
20260509142122 70 0.0 0.0 0.00 0.00 0.00 52 1014.6
20260509141621 70 0.0 0.0 0.00 0.00 0.00 54 1014.6
20260509141159 70 0.0 0.0 0.00 0.00 0.00 54 1014.6
20260509140639 70 0.0 0.0 0.00 0.00 0.00 53 1014.7
20260509140117 70 0.0 0.0 0.00 0.00 0.00 53 1014.7
20260509135617 70 0.0 0.0 0.00 0.00 0.00 52 1014.7
20260509135115 70 0.0 0.0 0.00 0.00 0.00 52 1014.7
20260509134635 70 0.0 0.0 0.00 0.00 0.00 56 1014.8
20260509134113 70 0.0 0.0 0.00 0.00 0.00 56 1014.8
20260509133613 70 0.0 0.0 0.00 0.00 0.00 57 1014.9
20260509133111 70 0.0 0.0 0.00 0.00 0.00 57 1014.9
20260509132611 70 0.0 0.0 0.00 0.00 0.00 56 1015.0
20260509132109 70 0.0 0.0 0.00 0.00 0.00 56 1015.0
20260509131609 69 0.0 0.0 0.00 0.00 0.00 56 1015.0
20260509131107 69 0.0 0.0 0.00 0.00 0.00 56 1015.0
20260509130606 69 0.0 0.0 0.00 0.00 0.00 57 1015.2
20260509130106 69 0.0 0.0 0.00 0.00 0.00 57 1015.2
20260509125605 69 0.0 0.0 0.00 0.00 0.00 57 1015.3
20260509125103 69 0.0 0.0 0.00 0.00 0.00 57 1015.3
20260509124603 69 0.0 0.0 0.00 0.00 0.00 55 1015.4
20260509124102 69 0.0 0.0 0.00 0.00 0.00 55 1015.4
20260509123600 69 0.0 0.0 0.00 0.00 0.00 56 1015.4
20260509123100 69 0.0 0.0 0.00 0.00 0.00 56 1015.4
20260509122558 68 0.0 0.0 0.00 0.00 0.00 58 1015.5
20260509122058 68 0.0 0.0 0.00 0.00 0.00 58 1015.5
20260509121556 68 0.0 0.0 0.00 0.00 0.00 56 1015.6
20260509121056 68 0.0 0.0 0.00 0.00 0.00 56 1015.6
20260509120554 68 0.0 0.0 0.00 0.00 0.00 56 1015.8
20260509120114 68 0.0 0.0 0.00 0.00 0.00 56 1015.8
20260509115612 68 0.0 0.0 0.00 0.00 0.00 60 1015.9
20260509115232 68 0.0 0.0 0.00 0.00 0.00 60 1015.9
20260509114550 68 0.0 0.0 0.00 0.00 0.00 57 1016.0
20260509114050 68 0.0 0.0 0.00 0.00 0.00 57 1016.0
20260509113548 68 0.0 0.0 0.00 0.00 0.00 60 1016.1
20260509113048 68 0.0 0.0 0.00 0.00 0.00 60 1016.1
20260509112546 68 0.0 0.0 0.00 0.00 0.00 59 1016.2
20260509112046 68 0.0 0.0 0.00 0.00 0.00 59 1016.2
20260509111544 68 0.0 0.0 0.00 0.00 0.00 61 1016.3
20260509111045 68 0.0 0.0 0.00 0.00 0.00 61 1016.3
20260509110543 68 0.0 0.0 0.00 0.00 0.00 61 1016.4
20260509110041 68 0.0 0.0 0.00 0.00 0.00 61 1016.4
20260509105541 68 0.0 0.0 0.00 0.00 0.00 60 1016.4
20260509105039 68 0.0 0.0 0.00 0.00 0.00 60 1016.4
20260509104540 67 0.0 0.0 0.00 0.00 0.00 61 1016.4
20260509104038 67 0.0 0.0 0.00 0.00 0.00 61 1016.4
20260509103536 67 0.0 0.0 0.00 0.00 0.00 61 1016.5
20260509103036 67 0.0 0.0 0.00 0.00 0.00 61 1016.5
20260509102534 67 0.0 0.0 0.00 0.00 0.00 62 1016.5
20260509102034 67 0.0 0.0 0.00 0.00 0.00 62 1016.5
20260509101543 67 0.0 0.0 0.00 0.00 0.00 62 1016.6
20260509101032 67 0.0 0.0 0.00 0.00 0.00 62 1016.6
20260509100531 67 0.0 0.0 0.00 0.00 0.00 61 1016.6
20260509100029 67 0.0 0.0 0.00 0.00 0.00 61 1016.6
20260509095529 67 0.0 0.0 0.00 0.00 0.00 61 1016.6
20260509095028 67 0.0 0.0 0.00 0.00 0.00 61 1016.6
20260509094527 67 0.0 0.0 0.00 0.00 0.00 61 1016.6
20260509094025 67 0.0 0.0 0.00 0.00 0.00 61 1016.6
20260509093525 67 0.0 0.0 0.00 0.00 0.00 64 1016.6
20260509093024 67 0.0 0.0 0.00 0.00 0.00 64 1016.6
20260509092522 66 0.0 0.0 0.00 0.00 0.00 66 1016.7
20260509092022 66 0.0 0.0 0.00 0.00 0.00 66 1016.7
20260509091523 66 0.0 0.0 0.00 0.00 0.00 66 1016.7
20260509091020 66 0.0 0.0 0.00 0.00 0.00 66 1016.7
20260509090518 66 0.0 0.0 0.00 0.00 0.00 67 1016.7
20260509090018 66 0.0 0.0 0.00 0.00 0.00 67 1016.7
20260509085516 65 0.0 0.0 0.00 0.00 0.00 66 1016.7
20260509085036 65 0.0 0.0 0.00 0.00 0.00 66 1016.7
20260509084515 65 0.0 0.0 0.00 0.00 0.00 67 1016.7
20260509083532 64 0.0 0.0 0.00 0.00 0.00 72 1016.7
20260509082511 64 0.0 0.0 0.00 0.00 0.00 72 1016.7
20260509081509 63 0.0 0.0 0.00 0.00 0.00 72 1016.9
20260509080507 63 0.0 0.0 0.00 0.00 0.00 71 1016.8
20260509075504 62 0.0 0.0 0.00 0.00 0.00 75 1016.9
20260509074504 61 0.0 0.0 0.00 0.00 0.00 76 1016.9
20260509073500 60 0.0 0.0 0.00 0.00 0.00 78 1016.9
20260509073000 60 0.0 0.0 0.00 0.00 0.00 78 1016.9
20260509072458 59 0.0 0.0 0.00 0.00 0.00 78 1017.0
20260509071958 59 0.0 0.0 0.00 0.00 0.00 78 1017.0
20260509071456 58 0.0 0.0 0.00 0.00 0.00 78 1016.9
20260509070956 58 0.0 0.0 0.00 0.00 0.00 78 1016.9
20260509070515 57 0.0 0.0 0.00 0.00 0.00 79 1017.0
20260509065954 57 0.0 0.0 0.00 0.00 0.00 79 1017.0
20260509065453 56 0.0 0.0 0.00 0.00 0.00 79 1016.9
20260509064951 56 0.0 0.0 0.00 0.00 0.00 79 1016.9
20260509064451 56 0.0 0.0 0.00 0.00 0.00 79 1016.9
20260509063949 56 0.0 0.0 0.00 0.00 0.00 79 1016.9
20260509063448 56 0.0 0.0 0.00 0.00 0.00 79 1016.9
20260509062948 55 0.0 0.0 0.00 0.00 0.00 80 1016.9
20260509062446 55 0.0 0.0 0.00 0.00 0.00 80 1016.9
20260509061946 55 0.0 0.0 0.00 0.00 0.00 81 1016.8
20260509061444 55 0.0 0.0 0.00 0.00 0.00 81 1016.8
20260509060944 54 0.0 0.0 0.00 0.00 0.00 80 1016.7
20260509060442 54 0.0 0.0 0.00 0.00 0.00 80 1016.7
20260509055942 54 0.0 0.0 0.00 0.00 0.00 82 1016.8
20260509055440 54 0.0 0.0 0.00 0.00 0.00 82 1016.8
20260509054940 53 0.0 0.0 0.00 0.00 0.00 85 1016.8
20260509054439 53 0.0 0.0 0.00 0.00 0.00 85 1016.8
20260509053938 52 0.0 0.0 0.00 0.00 0.00 85 1016.7
20260509053437 52 0.0 0.0 0.00 0.00 0.00 85 1016.7
20260509052935 51 0.0 0.0 0.00 0.00 0.00 83 1016.6
20260509052435 51 0.0 0.0 0.00 0.00 0.00 83 1016.6
20260509051933 51 0.0 0.0 0.00 0.00 0.00 83 1016.6
20260509051453 51 0.0 0.0 0.00 0.00 0.00 83 1016.6
20260509050932 51 0.0 0.0 0.00 0.00 0.00 82 1016.6
20260509050430 51 0.0 0.0 0.00 0.00 0.00 82 1016.6
20260509045930 51 0.0 0.0 0.00 0.00 0.00 82 1016.6
20260509045428 51 0.0 0.0 0.00 0.00 0.00 82 1016.6
20260509044928 51 0.0 0.0 0.00 0.00 0.00 81 1016.5
20260509044427 51 0.0 0.0 0.00 0.00 0.00 81 1016.5
20260509043925 51 0.0 0.0 0.00 0.00 0.00 81 1016.5
20260509043445 51 0.0 0.0 0.00 0.00 0.00 81 1016.5
20260509042923 51 0.0 0.0 0.00 0.00 0.00 81 1016.5
20260509042422 51 0.0 0.0 0.00 0.00 0.00 81 1016.5
20260509042002 51 0.0 0.0 0.00 0.00 0.00 81 1016.4
20260509041440 51 0.0 0.0 0.00 0.00 0.00 81 1016.4
20260509040920 51 0.0 0.0 0.00 0.00 0.00 80 1016.4
20260509040418 51 0.0 0.0 0.00 0.00 0.00 80 1016.4
20260509035918 51 0.0 0.0 0.00 0.00 0.00 80 1016.4
20260509035416 51 0.0 0.0 0.00 0.00 0.00 80 1016.4
20260509034915 51 0.0 0.0 0.00 0.00 0.00 80 1016.5
20260509034414 51 0.0 0.0 0.00 0.00 0.00 80 1016.5
20260509033914 51 0.0 0.0 0.00 0.00 0.00 80 1016.5
20260509033413 51 0.0 0.0 0.00 0.00 0.00 80 1016.5
20260509032912 52 0.0 0.0 0.00 0.00 0.00 80 1016.5
20260509032431 52 0.0 0.0 0.00 0.00 0.00 80 1016.5
20260509031950 52 0.0 0.0 0.00 0.00 0.00 80 1016.6
20260509031408 52 0.0 0.0 0.00 0.00 0.00 80 1016.6
20260509030908 52 0.0 0.0 0.00 0.00 0.00 80 1016.7
20260509030426 52 0.0 0.0 0.00 0.00 0.00 80 1016.7
20260509025906 52 0.0 0.0 0.00 0.00 0.00 80 1016.7
20260509025405 52 0.0 0.0 0.00 0.00 0.00 80 1016.7
20260509024903 52 0.0 0.0 0.00 0.00 0.00 80 1016.7
20260509024402 52 0.0 0.0 0.00 0.00 0.00 80 1016.7
20260509023902 52 0.0 0.0 0.00 0.00 0.00 79 1016.7
20260509023440 52 0.0 0.0 0.00 0.00 0.00 79 1016.7
20260509022920 52 0.0 0.0 0.00 0.00 0.00 79 1016.7
20260509022519 52 0.0 0.0 0.00 0.00 0.00 79 1016.7
20260509021857 52 0.0 0.0 0.00 0.00 0.00 79 1016.6
20260509021356 52 0.0 0.0 0.00 0.00 0.00 79 1016.6
20260509020855 52 0.0 0.0 0.00 0.00 0.00 79 1016.6
20260509020354 52 0.0 0.0 0.00 0.00 0.00 79 1016.6
20260509015853 52 0.0 0.0 0.00 0.00 0.00 80 1016.6
20260509015353 52 0.0 0.0 0.00 0.00 0.00 80 1016.6
20260509014852 52 0.0 0.0 0.00 0.00 0.00 80 1016.7
20260509014410 52 0.0 0.0 0.00 0.00 0.00 80 1016.7
20260509013850 52 0.0 0.0 0.00 0.00 0.00 79 1016.8
20260509013348 52 0.0 0.0 0.00 0.00 0.00 79 1016.8
20260509012848 52 0.0 0.0 0.00 0.00 0.00 79 1016.9
20260509012427 52 0.0 0.0 0.00 0.00 0.00 79 1016.9
20260509011845 52 0.0 0.0 0.00 0.00 0.00 79 1016.9
20260509011344 52 0.0 0.0 0.00 0.00 0.00 79 1016.9
20260509010843 52 0.0 0.0 0.00 0.00 0.00 79 1016.9
20260509010343 52 0.0 0.0 0.00 0.00 0.00 79 1016.9
20260509005842 52 0.0 0.0 0.00 0.00 0.00 79 1017.0
20260509005400 52 0.0 0.0 0.00 0.00 0.00 79 1017.0
20260509004839 53 0.0 0.0 0.00 0.00 0.00 79 1017.0
20260509004338 53 0.0 0.0 0.00 0.00 0.00 79 1017.0
20260509003838 53 0.0 0.0 0.00 0.00 0.00 78 1017.0
20260509003336 53 0.0 0.0 0.00 0.00 0.00 78 1017.0
20260509002836 53 0.0 0.0 0.00 0.00 0.00 78 1017.0
20260509002334 53 0.0 0.0 0.00 0.00 0.00 78 1017.0
20260509001833 53 0.0 0.0 0.00 0.00 0.00 78 1017.0
20260509001333 53 0.0 0.0 0.00 0.00 0.00 78 1017.0
20260509000831 53 0.0 0.0 0.00 0.00 0.00 78 1017.0
20260509000351 53 0.0 0.0 0.00 0.00 0.00 78 1017.0
20260508235910 53 0.0 0.0 0.00 0.00 0.00 78 1017.0
20260508235329 53 0.0 0.0 0.00 0.00 0.00 78 1017.0
20260508234827 53 0.0 0.0 0.00 0.00 0.00 78 1017.0
20260508234327 53 0.0 0.0 0.00 0.00 0.00 78 1017.0
20260508233845 53 0.0 0.0 0.00 0.00 0.00 78 1017.1
20260508233325 53 0.0 0.0 0.00 0.00 0.00 78 1017.1
20260508232823 53 0.0 0.0 0.00 0.00 0.00 77 1017.1
20260508232323 53 0.0 0.0 0.00 0.00 0.00 77 1017.1
20260508231822 54 0.0 0.0 0.00 0.00 0.00 77 1017.2
20260508231343 54 0.0 0.0 0.00 0.00 0.00 77 1017.2
20260508230819 54 0.0 0.0 0.00 0.00 0.00 76 1017.2
20260508230338 54 0.0 0.0 0.00 0.00 0.00 76 1017.2
20260508225858 54 0.0 0.0 0.00 0.00 0.00 76 1017.2
20260508225317 54 0.0 0.0 0.00 0.00 0.00 76 1017.2
20260508224816 54 0.0 0.0 0.00 0.00 0.00 76 1017.1
20260508224354 54 0.0 0.0 0.00 0.00 0.00 76 1017.1
20260508223834 54 0.0 0.0 0.00 0.00 0.00 75 1017.1
20260508223312 54 0.0 0.0 0.00 0.00 0.00 75 1017.1
20260508222932 55 0.0 0.0 0.00 0.00 0.00 75 1017.0
20260508222310 55 0.0 0.0 0.00 0.00 0.00 75 1017.0
20260508221830 55 0.0 0.0 0.00 0.00 0.00 76 1017.1
20260508221308 55 0.0 0.0 0.00 0.00 0.00 76 1017.1
20260508220807 55 0.0 0.0 0.00 0.00 0.00 75 1017.1
20260508220327 55 0.0 0.0 0.00 0.00 0.00 75 1017.1
20260508215805 55 0.0 0.0 0.00 0.00 0.00 75 1017.0
20260508215306 55 0.0 0.0 0.00 0.00 0.00 75 1017.0
20260508214803 56 0.0 0.0 0.00 0.00 0.00 75 1017.1
20260508214303 56 0.0 0.0 0.00 0.00 0.00 75 1017.1
20260508213801 56 0.0 0.0 0.00 0.00 0.00 75 1017.0
20260508213301 56 0.0 0.0 0.00 0.00 0.00 75 1017.0
20260508212800 56 0.0 0.0 0.00 0.00 0.00 75 1016.9
20260508212258 56 0.0 0.0 0.00 0.00 0.00 75 1016.9
20260508211757 57 0.0 0.0 0.00 0.00 0.00 75 1016.8
20260508211317 57 0.0 0.0 0.00 0.00 0.00 75 1016.8
20260508210755 57 0.0 0.0 0.00 0.00 0.00 74 1016.8
20260508210315 57 0.0 0.0 0.00 0.00 0.00 74 1016.8
20260508205753 57 0.0 0.0 0.00 0.00 0.00 73 1016.8
20260508205253 57 0.0 0.0 0.00 0.00 0.00 73 1016.8
20260508204751 58 0.0 0.0 0.00 0.00 0.00 73 1016.7
20260508204310 58 0.0 0.0 0.00 0.00 0.00 73 1016.7
20260508203750 58 0.0 0.0 0.00 0.00 0.00 72 1016.7
20260508203248 58 0.0 0.0 0.00 0.00 0.00 72 1016.7
20260508202748 59 0.0 0.0 0.00 0.00 0.00 72 1016.7
20260508202246 59 0.0 0.0 0.00 0.00 0.00 72 1016.7
20260508201746 59 0.0 0.0 0.00 0.00 0.00 70 1016.6
20260508201244 59 0.0 0.0 0.00 0.00 0.00 70 1016.6
20260508200744 59 0.0 0.0 0.00 0.00 0.00 70 1016.5
20260508200243 59 0.0 0.0 0.00 0.00 0.00 70 1016.5
20260508195821 60 0.0 0.0 0.00 0.00 0.00 69 1016.4
20260508195300 60 0.0 0.0 0.00 0.00 0.00 69 1016.4
20260508194739 60 0.0 0.0 0.00 0.00 0.00 68 1016.4
20260508194239 60 0.0 0.0 0.00 0.00 0.00 68 1016.4
20260508193737 61 0.0 0.0 0.00 0.00 0.00 67 1016.3
20260508193237 61 0.0 0.0 0.00 0.00 0.00 67 1016.3
20260508192736 62 0.0 0.0 0.00 0.00 0.00 67 1016.2
20260508192255 62 0.0 0.0 0.00 0.00 0.00 67 1016.2
20260508191734 62 0.0 0.0 0.00 0.00 0.00 66 1016.1
20260508191232 62 0.0 0.0 0.00 0.00 0.00 66 1016.1
20260508190731 62 0.0 0.0 0.00 0.00 0.00 66 1016.1
20260508190230 62 0.0 0.0 0.00 0.00 0.00 66 1016.1
20260508185729 63 0.0 0.0 0.00 0.00 0.00 66 1015.9
20260508185228 63 0.0 0.0 0.00 0.00 0.00 66 1015.9
20260508184728 64 0.0 0.0 0.00 0.00 0.00 65 1015.8
20260508184227 64 0.0 0.0 0.00 0.00 0.00 65 1015.8
20260508183726 64 0.0 0.0 0.00 0.00 0.00 65 1015.7
20260508183224 64 0.0 0.0 0.00 0.00 0.00 65 1015.7
20260508182724 65 0.0 0.0 0.00 0.00 0.00 64 1015.8
20260508182222 65 0.0 0.0 0.00 0.00 0.00 64 1015.8
20260508181722 65 0.0 0.0 0.00 0.00 0.00 63 1015.7
20260508181220 65 0.0 0.0 0.00 0.00 0.00 63 1015.7
20260508180720 65 0.0 0.0 0.00 0.00 0.00 61 1015.6
20260508180219 65 0.0 0.0 0.00 0.00 0.00 61 1015.6
20260508175718 65 0.0 0.0 0.00 0.00 0.00 62 1015.4
20260508175216 65 0.0 0.0 0.00 0.00 0.00 62 1015.4
20260508174715 65 0.0 0.0 0.00 0.00 0.00 62 1015.4
20260508174215 65 0.0 0.0 0.00 0.00 0.00 62 1015.4
20260508173713 65 0.0 0.0 0.00 0.00 0.00 60 1015.3
20260508173213 65 0.0 0.0 0.00 0.00 0.00 60 1015.3
20260508172731 65 0.0 0.0 0.00 0.00 0.00 61 1015.3
20260508172211 65 0.0 0.0 0.00 0.00 0.00 61 1015.3
20260508171709 65 0.0 0.0 0.00 0.00 0.00 63 1015.3
20260508171229 65 0.0 0.0 0.00 0.00 0.00 63 1015.3
20260508170707 65 0.0 0.0 0.00 0.00 0.00 63 1015.3
20260508170206 65 0.0 0.0 0.00 0.00 0.00 63 1015.3
20260508165706 65 0.0 0.0 0.00 0.00 0.00 63 1015.2
20260508165204 65 0.0 0.0 0.00 0.00 0.00 63 1015.2
20260508164704 65 0.0 0.0 0.00 0.00 0.00 63 1015.2
20260508164202 65 0.0 0.0 0.00 0.00 0.00 63 1015.2
20260508163702 65 0.0 0.0 0.00 0.00 0.00 63 1015.2
20260508163200 65 0.0 0.0 0.00 0.00 0.00 63 1015.2
20260508162700 65 0.0 0.0 0.00 0.00 0.00 62 1015.2
20260508162159 65 0.0 0.0 0.00 0.00 0.00 62 1015.2
20260508161657 65 0.0 0.0 0.00 0.00 0.00 61 1015.2
20260508161217 65 0.0 0.0 0.00 0.00 0.00 61 1015.2
20260508160656 65 0.0 0.0 0.00 0.00 0.00 61 1015.1
20260508160154 65 0.0 0.0 0.00 0.00 0.00 61 1015.1
20260508155653 66 0.0 0.0 0.00 0.00 0.00 60 1015.1
20260508155152 66 0.0 0.0 0.00 0.00 0.00 60 1015.1
20260508154712 66 0.0 0.0 0.00 0.00 0.00 59 1015.1
20260508154150 66 0.0 0.0 0.00 0.00 0.00 59 1015.1
20260508153650 67 0.0 0.0 0.00 0.00 0.00 62 1015.2
20260508153148 67 0.0 0.0 0.00 0.00 0.00 62 1015.2
20260508152648 66 0.0 0.0 0.00 0.00 0.00 61 1015.3
20260508152207 66 0.0 0.0 0.00 0.00 0.00 61 1015.3
20260508151645 66 0.0 0.0 0.00 0.00 0.00 60 1015.3
20260508151204 66 0.0 0.0 0.00 0.00 0.00 60 1015.3
20260508150644 66 0.0 0.0 0.00 0.00 0.00 61 1015.3
20260508150142 66 0.0 0.0 0.00 0.00 0.00 61 1015.3
20260508145702 65 0.0 0.0 0.00 0.00 0.00 60 1015.4
20260508145140 65 0.0 0.0 0.00 0.00 0.00 60 1015.4